Location: Saint-Maurice-d�Ard�che
(44.5216°N, 4.4002°E)
Time: 21:28:31
(UTC+00:00)

NOSS 3-4 (A) - Pass Details

Date: 30 March 2020
Orbit: 895 x 1317 km, 63.4° (Epoch: 21 May)

Event Time Altitude Azimuth Distance (km) Brightness Sun altitude
Rises 21:20:44 0° 322° (NW) 3,825 7.7 -31.4°
Reaches altitude 10° 21:23:16 10° 324° (NW) 2,925 6.9 -31.7°
Enters shadow 21:30:09 81° 32° (NNE) 1,182 3.8 -32.5°
